• In Belarus
  • List of Countries
  • For 7 days
  • Water Temperature
  • Satellite Maps
  • Weather Map
  • Weather Widgets
  • user-avatar
    Login

    Hourly Weather Kitzbuhel

    Today, 19 September, Wednesday

    Time Temperature Precipitation Wind Pressure Humidity
    00:00 +14°C° 0.5 mm 1 mps 680 mmHg 90%
    01:00 +13°C° 0 mm 1 mps 680 mmHg 91%
    02:00 +13°C° 0.1 mm 1 mps 680 mmHg 90%
    03:00 +13°C° 0.1 mm 1 mps 680 mmHg 90%
    04:00 +13°C° 0.1 mm 1 mps 680 mmHg 89%
    05:00 +13°C° 0 mm 1 mps 680 mmHg 89%
    06:00 +14°C° 0 mm 1 mps 680 mmHg 88%
    07:00 +14°C° 0 mm 1 mps 681 mmHg 86%
    08:00 +18°C° 0 mm 1 mps 682 mmHg 77%
    09:00 +20°C° 0 mm 1 mps 682 mmHg 68%
    10:00 +22°C° 0 mm 1 mps 683 mmHg 58%
    11:00 +23°C° 0.1 mm 1 mps 683 mmHg 56%
    12:00 +23°C° 0.1 mm 1 mps 683 mmHg 53%
    13:00 +24°C° 0.1 mm 1 mps 682 mmHg 51%
    14:00 +24°C° 0.1 mm 1 mps 682 mmHg 54%
    15:00 +23°C° 0.1 mm 1 mps 682 mmHg 58%
    16:00 +23°C° 0.1 mm 1 mps 682 mmHg 62%
    17:00 +20°C° 0.1 mm 1 mps 682 mmHg 70%
    18:00 +18°C° 0.1 mm 1 mps 681 mmHg 79%
    19:00 +15°C° 0.1 mm 1 mps 681 mmHg 88%
    20:00 +15°C° 0 mm 1 mps 681 mmHg 89%
    21:00 +14°C° 0 mm 1 mps 682 mmHg 89%
    22:00 +13°C° 0 mm 1 mps 682 mmHg 90%
    23:00 +13°C° 0 mm 1 mps 682 mmHg 89%

    Tomorrow, 20 September, Thursday

    Time Temperature Precipitation Wind Pressure Humidity
    00:00 +13°C° 0 mm 1 mps 681 mmHg 87%
    01:00 +13°C° 0 mm 1 mps 681 mmHg 86%
    02:00 +12°C° 0 mm 1 mps 681 mmHg 84%
    03:00 +12°C° 0 mm 1 mps 681 mmHg 83%
    04:00 +12°C° 0 mm 1 mps 681 mmHg 81%
    05:00 +12°C° 0 mm 1 mps 681 mmHg 80%
    06:00 +13°C° 0 mm 1 mps 681 mmHg 78%
    07:00 +13°C° 0 mm 1 mps 681 mmHg 76%
    08:00 +16°C° 0 mm 1 mps 682 mmHg 67%
    09:00 +18°C° 0 mm 0 mps 682 mmHg 58%
    10:00 +21°C° 0 mm 0 mps 683 mmHg 49%
    11:00 +22°C° 0 mm 0 mps 683 mmHg 47%
    12:00 +24°C° 0 mm 1 mps 683 mmHg 45%
    13:00 +25°C° 0 mm 1 mps 682 mmHg 43%
    14:00 +25°C° 0 mm 1 mps 682 mmHg 46%
    15:00 +24°C° 0 mm 1 mps 682 mmHg 50%
    16:00 +24°C° 0 mm 1 mps 681 mmHg 53%
    17:00 +21°C° 0 mm 1 mps 681 mmHg 65%
    18:00 +19°C° 0 mm 1 mps 680 mmHg 76%
    19:00 +15°C° 0 mm 1 mps 680 mmHg 87%
    20:00 +15°C° 0 mm 1 mps 680 mmHg 86%
    21:00 +14°C° 0 mm 1 mps 679 mmHg 85%
    22:00 +14°C° 0 mm 2 mps 679 mmHg 85%
    23:00 +14°C° 0 mm 2 mps 679 mmHg 84%

    Day after tomorrow, 21 September, Friday

    Time Temperature Precipitation Wind Pressure Humidity
    00:00 +14°C° 0 mm 2 mps 679 mmHg 84%
    01:00 +13°C° 0 mm 2 mps 679 mmHg 84%
    02:00 +13°C° 0 mm 2 mps 678 mmHg 85%
    03:00 +13°C° 0 mm 2 mps 678 mmHg 85%
    04:00 +13°C° 0 mm 2 mps 678 mmHg 85%
    05:00 +13°C° 0 mm 2 mps 678 mmHg 84%
    06:00 +14°C° 0 mm 2 mps 678 mmHg 83%
    07:00 +14°C° 0 mm 2 mps 678 mmHg 82%
    08:00 +18°C° 0 mm 1 mps 679 mmHg 71%
    09:00 +21°C° 0 mm 1 mps 679 mmHg 61%
    10:00 +24°C° 0 mm 1 mps 680 mmHg 50%
    11:00 +25°C° 0 mm 1 mps 680 mmHg 47%
    12:00 +26°C° 0 mm 1 mps 680 mmHg 44%
    13:00 +26°C° 0 mm 2 mps 679 mmHg 40%
    14:00 +26°C° 0 mm 2 mps 679 mmHg 45%
    15:00 +25°C° 0 mm 2 mps 679 mmHg 50%
    16:00 +24°C° 0 mm 2 mps 678 mmHg 55%
    17:00 +22°C° 0.1 mm 1 mps 678 mmHg 65%
    18:00 +19°C° 0.1 mm 1 mps 678 mmHg 75%
    19:00 +16°C° 0.1 mm 1 mps 678 mmHg 85%
    20:00 +16°C° 0.2 mm 1 mps 678 mmHg 87%
    21:00 +16°C° 0.2 mm 1 mps 679 mmHg 89%
    22:00 +15°C° 0.2 mm 1 mps 679 mmHg 90%
    23:00 +15°C° 0.2 mm 1 mps 679 mmHg 93%

    22 September, Saturday

    Time Temperature Precipitation Wind Pressure Humidity
    00:00 +15°C° 0.2 mm 1 mps 679 mmHg 95%
    01:00 +14°C° 0.2 mm 2 mps 679 mmHg 97%
    02:00 +13°C° 0.8 mm 2 mps 679 mmHg 97%
    03:00 +12°C° 0.8 mm 2 mps 679 mmHg 97%
    04:00 +12°C° 0.8 mm 2 mps 679 mmHg 98%
    05:00 +10°C° 0.9 mm 2 mps 679 mmHg 98%
    06:00 +9°C° 0.9 mm 2 mps 679 mmHg 98%
    07:00 +9°C° 0.9 mm 2 mps 680 mmHg 98%
    08:00 +9°C° 0.5 mm 2 mps 680 mmHg 96%
    09:00 +10°C° 0.5 mm 1 mps 680 mmHg 95%
    10:00 +10°C° 0.5 mm 1 mps 680 mmHg 94%
    11:00 +10°C° 0.5 mm 1 mps 680 mmHg 93%
    12:00 +10°C° 0.5 mm 1 mps 680 mmHg 91%
    13:00 +11°C° 0.5 mm 1 mps 680 mmHg 90%
    14:00 +11°C° 0.5 mm 1 mps 679 mmHg 88%
    15:00 +11°C° 0.5 mm 1 mps 679 mmHg 85%
    16:00 +11°C° 0.5 mm 1 mps 679 mmHg 83%
    17:00 +11°C° 0.3 mm 1 mps 679 mmHg 85%
    18:00 +10°C° 0.3 mm 1 mps 680 mmHg 88%
    19:00 +9°C° 0.3 mm 1 mps 680 mmHg 90%
    20:00 +9°C° 0 mm 1 mps 680 mmHg 90%
    21:00 +8°C° 0 mm 1 mps 680 mmHg 91%
    22:00 +8°C° 0 mm 1 mps 680 mmHg 91%
    23:00 +8°C° 0 mm 1 mps 680 mmHg 91%

    23 September, Sunday

    Time Temperature Precipitation Wind Pressure Humidity
    00:00 +8°C° 0 mm 1 mps 680 mmHg 91%
    01:00 +7°C° 0 mm 1 mps 680 mmHg 91%
    02:00 +7°C° 0 mm 1 mps 679 mmHg 90%
    03:00 +8°C° 0 mm 1 mps 679 mmHg 89%
    04:00 +8°C° 0 mm 1 mps 679 mmHg 88%
    05:00 +9°C° 0 mm 1 mps 679 mmHg 87%
    06:00 +10°C° 0 mm 1 mps 678 mmHg 85%
    07:00 +9°C° 0 mm 2 mps 678 mmHg 83%
    08:00 +12°C° 0 mm 2 mps 678 mmHg 79%
    09:00 +14°C° 0 mm 2 mps 678 mmHg 75%
    10:00 +17°C° 0 mm 2 mps 678 mmHg 70%
    11:00 +18°C° 0 mm 2 mps 678 mmHg 66%
    12:00 +20°C° 0 mm 2 mps 677 mmHg 61%
    13:00 +22°C° 0 mm 3 mps 677 mmHg 57%
    14:00 +22°C° 0 mm 3 mps 676 mmHg 60%
    15:00 +21°C° 0 mm 3 mps 675 mmHg 64%
    16:00 +21°C° 0 mm 3 mps 674 mmHg 67%
    17:00 +19°C° 0 mm 3 mps 673 mmHg 72%
    18:00 +18°C° 0 mm 3 mps 672 mmHg 77%
    19:00 +16°C° 0 mm 3 mps 671 mmHg 81%
    20:00 +15°C° 0.1 mm 4 mps 670 mmHg 82%
    21:00 +15°C° 0.1 mm 4 mps 670 mmHg 83%
    22:00 +14°C° 0.1 mm 4 mps 670 mmHg 83%
    23:00 +13°C° 1 mm 4 mps 670 mmHg 88%

    24 September, Monday

    Time Temperature Precipitation Wind Pressure Humidity
    00:00 +12°C° 1 mm 4 mps 669 mmHg 92%
    01:00 +10°C° 1 mm 4 mps 669 mmHg 97%
    02:00 +9°C° 3.4 mm 3 mps 669 mmHg 97%
    03:00 +8°C° 3.4 mm 3 mps 668 mmHg 97%
    04:00 +7°C° 3.4 mm 2 mps 668 mmHg 97%
    05:00 +7°C° 2.8 mm 2 mps 667 mmHg 97%
    06:00 +6°C° 2.8 mm 2 mps 667 mmHg 96%
    07:00 +6°C° 2.8 mm 2 mps 667 mmHg 96%
    08:00 +5°C° 1.2 mm 3 mps 668 mmHg 95%
    09:00 +5°C° 1.2 mm 3 mps 669 mmHg 93%
    10:00 +6°C° 1.2 mm 4 mps 670 mmHg 92%
    11:00 +6°C° 1 mm 4 mps 671 mmHg 92%
    12:00 +6°C° 1 mm 4 mps 672 mmHg 92%
    13:00 +5°C° 1 mm 5 mps 672 mmHg 92%
    14:00 +5°C° 0.9 mm 4 mps 673 mmHg 92%
    15:00 +5°C° 0.9 mm 4 mps 674 mmHg 91%
    16:00 +5°C° 0.9 mm 4 mps 674 mmHg 91%
    17:00 +4°C° 1 mm 3 mps 675 mmHg 92%
    18:00 +4°C° 1 mm 3 mps 676 mmHg 94%
    19:00 +4°C° 1 mm 3 mps 676 mmHg 95%
    20:00 +3°C° 0.9 mm 3 mps 677 mmHg 95%
    21:00 +3°C° 0.9 mm 3 mps 678 mmHg 95%
    22:00 +3°C° 0.9 mm 3 mps 678 mmHg 95%
    23:00 +3°C° 0.7 mm 3 mps 679 mmHg 95%
    Show more